#timestamp,LO_Frequency,Hit,StdDev 
1633662015.3,286046994.9,Y
1633662035.1,286047001.0,P
1633662036.0,286047001.0,N
1633662055.8,286046998.4,N
1633662075.7,286046998.9,N
1633662095.5,286046999.1,N
1633662115.3,286046996.6,N
1633662135.2,286046997.1,N
1633662155.0,286046997.3,N
1633662155.9,286046997.3,N
1633662175.8,286046997.7,N
1633662195.6,286046998.0,N
1633662215.4,286046997.4,N
1633662235.3,286046997.4,N
1633662255.1,286046997.5,N
1633662275.9,286046998.0,N
1633662295.7,286046996.8,N
1633662315.6,286046997.4,N
1633662335.4,286046997.2,N
1633662355.2,286046996.7,N
1633662375.1,286046998.3,N
1633662376.0,286046998.3,N
1633662395.8,286046998.9,N
1633662415.6,286046999.3,N
1633662435.5,286046999.3,N
1633662455.3,286046998.2,N
1633662475.2,286046998.4,N
1633662495.0,286046997.2,N
1633662495.9,286046997.2,N
1633662515.7,286046997.4,N
1633662535.6,286046997.2,N
1633662555.4,286046996.8,N
1633662575.3,286046996.5,Y
1633662595.1,286047000.9,P
1633662596.0,286047000.9,N
1633662615.8,286047001.0,N
1633662635.7,286047002.1,N
1633662655.5,286047003.9,N
1633662675.3,286047001.5,N
1633662695.2,286047004.1,N
1633662715.0,286047004.2,N
1633662715.9,286047004.2,N
1633662735.8,286047001.7,N
1633662755.6,286047002.5,N
1633662775.4,286047002.1,N
1633662795.3,286046999.7,N
1633662815.1,286047002.7,N
1633662835.9,286047002.7,N
1633662855.7,286046999.7,N
1633662875.5,286047002.8,N
1633662895.4,286047002.3,N
1633662915.2,286047002.6,N
1633662935.0,286047001.8,N
1633662935.9,286047001.8,N
1633662955.8,286047001.8,N
1633662975.6,286047001.4,N
1633662995.5,286047002.3,N
1633663015.3,286047002.7,N
1633663035.1,286047000.7,N
1633663055.9,286046998.4,N
1633663075.7,286047000.8,N
1633663095.5,286046998.4,N
1633663115.4,286047000.9,N
1633663135.2,286047000.7,N
1633663155.1,286047001.0,N
1633663156.0,286047001.0,N
1633663175.8,286047000.8,N
1633663195.6,286047000.5,N
1633663215.5,286047000.6,N
1633663235.3,286047000.6,N
1633663255.1,286047002.3,N
1633663275.9,286047002.3,N
1633663295.7,286047000.4,N
1633663315.6,286047001.0,N
1633663335.4,286047000.6,N
1633663355.2,286046998.8,N
1633663375.1,286046999.4,N
1633663376.0,286046999.4,N
1633663395.8,286046999.0,N
1633663415.7,286046998.7,N
1633663435.5,286047000.6,N
1633663455.3,286047000.0,N
1633663475.2,286047000.8,N
1633663495.0,286047000.3,N
1633663495.9,286047000.3,N
1633663515.7,286047000.6,N
1633663535.6,286046998.9,N
1633663555.4,286047001.0,N
1633663575.3,286046999.9,N
1633663595.1,286047000.6,N
1633663615.8,286047001.2,N
1633663635.7,286046998.1,N
1633663655.5,286046998.3,N
1633663675.4,286046998.9,N
1633663695.2,286046998.9,N
1633663715.0,286046998.1,N
1633663715.9,286046998.1,N
1633663735.8,286047000.6,N
1633663755.6,286047000.5,N
1633663775.4,286047000.3,N
1633663795.3,286047001.0,N
1633663815.1,286047000.7,N
1633663835.9,286047001.2,N
1633663855.7,286046999.1,N
1633663875.5,286046999.0,N
1633663895.4,286046999.0,N
1633663915.2,286046999.2,N
1633663935.0,286046999.4,N
1633663935.9,286046999.4,N
1633663955.8,286046998.9,N
1633663975.6,286046997.1,N
1633663995.5,286046999.3,N
1633664015.3,286046999.0,N
1633664035.1,286046996.8,Y
1633664055.9,286046998.4,P
1633664075.7,286046997.2,P
1633664095.6,286046999.2,N
1633664115.4,286046996.7,Y
1633664135.2,286046998.8,P
1633664155.1,286046999.5,P
1633664156.0,286046999.5,N
1633664175.8,286046999.5,N
1633664195.7,286046996.7,Y
1633664215.5,286046998.6,P
1633664235.3,286047001.1,P
1633664255.2,286047000.8,N
1633664275.0,286047001.2,N
1633664275.9,286047001.2,N
1633664295.7,286046998.7,N
1633664315.6,286046999.2,N
1633664335.4,286046999.4,N
1633664355.3,286046998.9,N
1633664375.1,286046999.3,N
1633664376.0,286046999.3,N
1633664395.8,286046997.0,Y
1633664415.7,286046999.2,P
1633664435.5,286046998.6,P
1633664455.4,286047001.0,N
1633664475.2,286047000.4,N
1633664495.0,286046999.8,N
1633664495.9,286046999.8,N
1633664515.8,286047002.3,Y
1633664535.6,286047001.9,P
1633664555.4,286046999.7,N
1633664575.3,286047001.9,N
1633664595.1,286047004.0,Y
1633664615.9,286047002.5,P
1633664635.7,286047001.9,N
1633664655.5,286047002.3,P
1633664675.4,286047001.6,N
1633664695.2,286047002.2,Y
1633664715.1,286046999.1,P
1633664716.0,286046999.1,N
1633664735.8,286046996.9,N
1633664755.6,286046996.5,N
1633664775.5,286046999.5,N
1633664795.3,286046996.6,N
1633664815.1,286046998.8,N
1633664835.9,286046998.8,N
1633664855.7,286046998.7,N
1633664875.6,286046999.6,N
1633664895.4,286046999.5,N
1633664915.2,286046999.4,N
1633664935.1,286046999.5,N
1633664936.0,286046999.5,N
1633664955.8,286046998.8,N
1633664975.7,286046998.7,N
1633664995.5,286046999.0,N
1633665015.3,286046998.4,N
1633665035.2,286047001.2,N
1633665055.9,286047001.0,N
1633665075.7,286047000.8,N
1633665095.6,286047000.4,N
1633665115.4,286047000.1,N
1633665135.3,286047001.6,N
1633665155.1,286047001.9,N
1633665156.0,286047001.9,N
1633665175.8,286047002.3,N
1633665195.7,286047002.8,N
1633665215.5,286046999.7,N
1633665235.3,286047002.0,N
1633665255.2,286047004.0,N
1633665275.0,286047004.2,N
1633665275.9,286047004.2,N
1633665295.8,286047003.7,N
1633665315.6,286047004.4,N
1633665335.4,286047004.3,N
1633665355.3,286047003.1,N
1633665375.1,286047005.7,N
1633665395.8,286047006.0,N
1633665415.7,286047005.1,N
1633665435.5,286047005.1,N
1633665455.4,286047005.4,N
1633665475.2,286047005.6,N
1633665495.0,286047006.9,N
1633665495.9,286047006.9,N
1633665515.8,286047008.7,Y
1633665535.6,286047004.5,P
1633665555.5,286047005.0,P
1633665575.3,286047006.0,P
1633665595.1,286047003.1,N
